Waukesha, WI

8:17 PM CST on December 07, 2016 (GMT -0600)
Waukesha County

Weather History for KUES - November, 2014

Change the Weather History Date:

Thursday, November 13, 2014

  Actual Average Record
Temperature  
Mean Temperature 24 °F -  
Max Temperature 26 °F 42 °F 68 °F (1999)
Min Temperature 21 °F 28 °F 2 °F (1986)
Degree Days  
Heating Degree Days 42    
Moisture  
Dew Point 14 °F    
Average Humidity 68    
Maximum Humidity 80    
Minimum Humidity 59    
Precipitation  
Precipitation 0.00 in - - ()
Sea Level Pressure  
Sea Level Pressure 30.26 in    
Wind  
Wind Speed 12 mph (WNW)    
Max Wind Speed 15 mph    
Max Gust Speed 23 mph    
Visibility 10 miles    
Events Snow    
Averages and records for this station are not official NWS values.
T = Trace of Precipitation, MM = Missing Value Source: NWS Daily Summary

Daily Weather History Graph

Daily Weather History Graph

Search for Another Location

Airport or City:

Trip Planner

Search our weather history database for the weather conditions in past years. The results will help you decide how hot, cold, wet, or windy it might be!

Date:

Astronomy

Nov. 13, 2014 Rise Set
Actual Time 6:42 AM CST 4:31 PM CST
Civil Twilight 6:12 AM CST 5:01 PM CST
Nautical Twilight 5:38 AM CST 5:35 PM CST
Astronomical Twilight 5:04 AM CST 6:09 PM CST
Moon 10:49 PM CST (11/13) 12:01 PM CST (11/13)
Length of Visible Light 10h 49m
Length of Day
9h 48m
Waning Gibbous, 58% of the Moon is Illuminated
Nov 13
Waning Gibbous
Nov 14
Last Quarter
Nov 22
New
Nov 29
First Quarter
Dec 6
Full

Hourly Weather History & Observations

Time (CST) Temp. Windchill Dew Point Humidity Pressure Visibility Wind Dir Wind Speed Gust Speed Precip Events Conditions
12:15 AM 23.0 °F 13.1 °F 14.0 °F 68% 30.25 in 10.0 mi West 9.2 mph - N/A   Overcast
12:35 AM 23.0 °F 12.4 °F 14.0 °F 68% 30.25 in 10.0 mi West 10.4 mph - N/A   Overcast
12:55 AM 23.0 °F 11.7 °F 14.0 °F 68% 30.25 in 10.0 mi West 11.5 mph - N/A   Overcast
1:15 AM 23.0 °F 12.4 °F 14.0 °F 68% 30.25 in 10.0 mi West 10.4 mph - N/A   Overcast
1:35 AM 23.0 °F 11.1 °F 14.0 °F 68% 30.26 in 10.0 mi West 12.7 mph 18.4 mph N/A   Overcast
1:55 AM 23.0 °F 10.6 °F 14.0 °F 68% 30.25 in 10.0 mi West 13.8 mph 17.3 mph N/A   Overcast
2:15 AM 23.0 °F 10.1 °F 14.0 °F 68% 30.26 in 10.0 mi WNW 15.0 mph 18.4 mph N/A   Overcast
2:35 AM 23.0 °F 11.7 °F 14.0 °F 68% 30.26 in 10.0 mi WNW 11.5 mph 17.3 mph N/A Snow Light Snow
2:55 AM 23.0 °F 11.7 °F 14.0 °F 68% 30.26 in 10.0 mi West 11.5 mph 16.1 mph N/A   Overcast
3:15 AM 23.0 °F 12.4 °F 14.0 °F 68% 30.26 in 10.0 mi WNW 10.4 mph - N/A   Overcast
3:35 AM 23.0 °F 13.1 °F 14.0 °F 68% 30.25 in 10.0 mi West 9.2 mph - N/A   Overcast
3:55 AM 23.0 °F 11.7 °F 14.0 °F 68% 30.25 in 10.0 mi West 11.5 mph - N/A   Overcast
4:15 AM 23.0 °F 11.7 °F 14.0 °F 68% 30.25 in 10.0 mi West 11.5 mph - N/A Snow Light Snow
4:35 AM 23.0 °F 13.1 °F 14.0 °F 68% 30.25 in 10.0 mi West 9.2 mph - N/A   Overcast
5:45 AM 21.2 °F 9.5 °F 15.8 °F 80% 30.26 in 10.0 mi West 11.5 mph - N/A   Overcast
6:45 AM 21.2 °F 9.5 °F 14.0 °F 74% 30.26 in 10.0 mi West 11.5 mph - N/A   Overcast
7:45 AM 23.0 °F 10.6 °F 15.8 °F 74% 30.27 in 10.0 mi West 13.8 mph - N/A   Overcast
8:45 AM 23.0 °F 10.6 °F 15.8 °F 74% 30.26 in 10.0 mi West 13.8 mph - N/A   Overcast
9:45 AM 23.0 °F 10.6 °F 15.8 °F 74% 30.27 in 10.0 mi West 13.8 mph - N/A   Overcast
10:45 AM 26.6 °F 15.2 °F 15.8 °F 64% 30.27 in 10.0 mi West 13.8 mph - N/A   Overcast
11:45 AM 24.8 °F 12.9 °F 14.0 °F 64% 30.26 in 10.0 mi West 13.8 mph - N/A   Overcast
12:45 PM 24.8 °F 12.4 °F 12.2 °F 59% 30.25 in 10.0 mi WNW 15.0 mph - N/A   Overcast
1:45 PM 24.8 °F 12.4 °F 12.2 °F 59% 30.23 in 10.0 mi WNW 15.0 mph - N/A   Overcast
2:45 PM 24.8 °F 12.4 °F 12.2 °F 59% 30.24 in 10.0 mi WNW 15.0 mph - N/A   Overcast
3:45 PM 24.8 °F 14.0 °F 12.2 °F 59% 30.24 in 10.0 mi WNW 11.5 mph 23.0 mph N/A   Overcast
4:45 PM 24.8 °F 14.0 °F 12.2 °F 59% 30.25 in 10.0 mi WNW 11.5 mph 23.0 mph N/A   Overcast
5:45 PM 24.8 °F 14.0 °F 12.2 °F 59% 30.25 in 10.0 mi WNW 11.5 mph 23.0 mph N/A   Overcast
6:45 PM 24.8 °F 14.0 °F 12.2 °F 59% 30.25 in 10.0 mi WNW 11.5 mph 23.0 mph N/A   Overcast
7:45 PM 23.0 °F 11.7 °F 12.2 °F 63% 30.27 in 10.0 mi WNW 11.5 mph 23.0 mph N/A   Overcast
8:15 PM 23.0 °F 11.7 °F 14.0 °F 68% 30.27 in 10.0 mi West 11.5 mph - N/A   Overcast
8:35 PM 23.0 °F 10.6 °F 14.0 °F 68% 30.27 in 10.0 mi WNW 13.8 mph - N/A   Scattered Clouds
8:45 PM 21.2 °F 9.5 °F 12.2 °F 68% 30.27 in 10.0 mi WNW 11.5 mph 23.0 mph N/A   Scattered Clouds
8:55 PM 21.2 °F 8.9 °F 14.0 °F 74% 30.28 in 10.0 mi WNW 12.7 mph 19.6 mph N/A   Clear
9:15 PM 21.2 °F 9.5 °F 12.2 °F 68% 30.28 in 10.0 mi WNW 11.5 mph 18.4 mph N/A   Clear
9:35 PM 21.2 °F 7.8 °F 12.2 °F 68% 30.27 in 10.0 mi WNW 15.0 mph 18.4 mph N/A   Clear
9:55 PM 21.2 °F 8.9 °F 12.2 °F 68% 30.27 in 10.0 mi WNW 12.7 mph - N/A   Clear
10:15 PM 21.2 °F 9.5 °F 12.2 °F 68% 30.27 in 10.0 mi WNW 11.5 mph - N/A   Clear
10:35 PM 21.2 °F 9.5 °F 12.2 °F 68% 30.28 in 10.0 mi WNW 11.5 mph - N/A   Clear
10:55 PM 21.2 °F 10.1 °F 14.0 °F 74% 30.28 in 10.0 mi WNW 10.4 mph - N/A   Clear
11:15 PM 21.2 °F 10.1 °F 14.0 °F 74% 30.28 in 10.0 mi WNW 10.4 mph - N/A   Clear
11:35 PM 21.2 °F 10.1 °F 14.0 °F 74% 30.28 in 10.0 mi WNW 10.4 mph 18.4 mph N/A   Clear
11:55 PM 21.2 °F 9.5 °F 14.0 °F 74% 30.28 in 10.0 mi WNW 11.5 mph 17.3 mph N/A   Clear